Terug naar catalogus

STARLINK-11184

ActiefCommunicatieVLEO
NORAD 60071·PAYLOAD·🇺🇸 United States

Gelanceerd Jun 19, 2024 vanaf Vandenberg Space Force Base

Loading…

Volgende Passages (komende 24 uur)

TLE

VersSource: CelesTrak SupGP

Epoch: Sep 14, 2026, 21:43 UTC

1 60071C 24113N   26257.90534722 -.00031409  00000+0 -25863-3 0  2571
2 60071  53.1568 338.6685 0001258  90.4055  35.5858 15.69733464    15

Volg STARLINK-11184 in realtime met AllMySat

Download on the App Store